Skip Page Navigation
NASA JPL Caltech
NASA Logo - Jet Propulsion Laboratory + View the NASA Portal
+ Near-Earth Object (NEO) Program
Search JPL
JPL Home Earth Solar System Stars & Galaxies Technology
JPL Solar System Dynamics
BODIES ORBITS EPHEMERIDES TOOLS PHYSICAL DATA DISCOVERY FAQ SITE MAP
JPL Small-Body Database Browser
Search: [ help ]  
(2014 DX110)
Classification: Apollo [NEO]          SPK-ID: 3662876
Ephemeris | Orbit Diagram | Orbital Elements | Physical Parameters | Close-Approach Data ]

[ show orbit diagram ]
Orbital Elements at Epoch 2457000.5 (2014-Dec-09.0) TDB
Reference: JPL 7 (heliocentric ecliptic J2000)
 Element Value Uncertainty (1-sigma)   Units 
e .6245284749520934 9.8946e-05  
a 2.202404890365391 0.00053005 AU
q .826940322958461 1.8902e-05 AU
i 5.735419358554886 0.00080066 deg
node 163.8242527596912 7.7869e-06 deg
peri 56.53092955199017 0.00051804 deg
M 72.50910963553387 0.025731 deg
tp 2456760.044761751321
(2014-Apr-12.54476175)
0.0014747 JED
period 1193.834625809594
3.27
0.43098
0.00118
d
yr
n .3015493035778447 0.00010886 deg/d
Q 3.577869457772322 0.00086108 AU
  Orbit Determination Parameters
   # obs. used (total)      61  
   data-arc span      5 days  
   first obs. used      2014-02-28  
   last obs. used      2014-03-05  
   planetary ephem.      DE431  
   SB-pert. ephem.      SB431-BIG16  
   condition code      6  
   fit RMS      .51731  
   data source      ORB  
   producer      Otto Matic  
   solution date      2014-Jun-13 19:13:13  

Additional Information
 Earth MOID = .00198945 AU 
 T_jup = 3.374 
[ show covariance matrix ]

Ephemeris | Orbit Diagram | Orbital Elements | Physical Parameters | Close-Approach Data ]

Physical Parameter Table
Parameter Symbol Value Units Sigma Reference Notes
absolute magnitude H 25.7 mag n/a E2014E24  

[ hide close-approach data ]
Close-Approach Data   ...sorted by Date/Time (TDB)
Date/Time (TDB) Time Uncertainty
(days_HH:MM)
Body Nominal Distance (AU) Minimum Distance (AU) Maximum Distance (AU) V-relative (km/s) V-infinity (km/s) JD (TDB) Time Uncertainty (minutes) Semi-major axis (km) Semi-minor axis (km) range-LOV angle (deg) N-sigma BP Orbit Ref. Reference Modified
1937-Mar-04 20:10 19:12 Earth 0.00548219838677018 0.00449980327435617 0.0280951887896923 14.7908381805746 14.7579418050577 2428597.340052020 1152.39384898514 958786.72164866 1.95522984092501 -55.3866701179011 272826.592043202 T 7 CATAB v2.0c-linF95 2014-Jun-13 19:13:16 2014-Jun-13 19:13
1937-Mar-04 22:20 20:57 Moon 0.00731851951087614 0.00458612329227685 0.0298468503364491 13.8712058952548 13.8708830559734 2428597.430831544 1257.36489196433 1166733.65250031 2.50418288221377 -38.8210208403832 269461.403283379 T 7 CATAB v2.0c-linF95 2014-Jun-13 19:13:16 2014-Jun-13 19:13
1953-Apr-28 19:22 06:34 Earth 0.201136588680694 0.20078960725901 0.20148464278727 12.5012458155926 12.5001861071624 2434496.307012704 394.430269641043 21134.096383993 35.0005014564994 -53.5066150753933 515757.545993113 T 7 CATAB v2.0c-linF95 2014-Jun-13 19:13:16 2014-Jun-13 19:13
1964-Jul-05 05:10 1_19:47 Jupiter 1.47031604120928 1.47030667013043 1.47033916157074 4.02421062302918 3.87841556060071 2438581.715048167 2627.06360818036 14878.960820277 10.3654416879748 42.2191011991529 956223.269563233 T 7 CATAB v2.0c-linF95 2014-Jun-13 19:13:16 2014-Jun-13 19:13
1969-Jun-24 19:38 1_07:35 Earth 0.116898083094604 0.104696962770041 0.135111545739602 12.8496282593809 12.8478542970939 2440397.318282017 1895.26840097023 972866.715585558 28.6940219526396 62.5418405984948 408373.257619984 T 7 CATAB v2.0c-linF95 2014-Jun-13 19:13:16 2014-Jun-13 19:13
1982-Feb-09 07:05 19:17 Earth 0.386837245409787 0.327130777558733 0.446245153891532 26.23218567506 26.2319231010296 2445009.795151156 1157.01299365045 2908573.31391122 1.82641357015702 1.84419479331174 935003.966326331 T 7 CATAB v2.0c-linF95 2014-Jun-13 19:13:16 2014-Jun-13 19:13
1982-Mar-17 13:29 2_03:24 Venus 0.123182852238654 0.0995612539948638 0.159433261588063 8.9787375889871 8.97677399857882 2445046.061531690 3083.60701543679 1900787.97390311 14.219480520448 -43.7584109507618 587988.095947748 T 7 CATAB v2.0c-linF95 2014-Jun-13 19:13:16 2014-Jun-13 19:13
1985-Jul-20 17:41 1_02:37 Earth 0.287882590655733 0.22305428530188 0.353910602261865 22.4987579236054 22.4983465443554 2446267.237050415 1597.32857737682 3313832.68431713 32.2428974213785 -18.3838613205394 377295.634076998 T 7 CATAB v2.0c-linF95 2014-Jun-13 19:13:16 2014-Jun-13 19:13
1998-Feb-26 19:59 2_11:40 Earth 0.0792404410474464 0.0022457409582917 0.182325305459985 17.1546396782026 17.1526794407347 2450871.332410363 3579.81613098004 4620412.07209191 1.58683582958927 1.55785018752741 166280.357074364 T 7 CATAB v2.0c-linF95 2014-Jun-13 19:13:16 2014-Jun-13 19:13
2014-Mar-05 21:00 < 00:01 Earth 0.00232971370645603 0.00232872364421186 0.00233070389383956 14.85073889757 14.7735255784982 2456722.374664939 0.0027178203169397 53.3234495707235 0.364349457411406 -0.122646925929232 5125.42050436354 T 7 CATAB v2.0c-linF95 2014-Jun-13 19:13:16 2014-Jun-13 19:13
2014-Mar-05 22:22 < 00:01 Moon 0.00250031814141317 0.00249986568090152 0.00250077094283592 15.8227026321311 15.8218742052122 2456722.431784938 0.0103490039934172 49.6725520509644 0.469191247097496 61.92942930555 691980.261050784 T 7 CATAB v2.0c-linF95 2014-Jun-13 19:13:16 2014-Jun-13 19:13
2130-Mar-18 03:24 2_06:42 Jupiter 1.74311236564335 1.72497661985879 1.76113799763865 5.13744261111168 5.04197043314239 2499102.641564478 3282.37733707219 103745.075984272 14.985134866628 4.51981625817689 113291.818626881 T 7 CATAB v2.0c-linF95 2014-Jun-13 19:13:16 2014-Jun-13 19:13
Ephemeris | Orbit Diagram | Orbital Elements | Physical Parameters | Close-Approach Data ]
ABOUT SSD CREDITS/AWARDS PRIVACY/COPYRIGHT GLOSSARY LINKS
FirstGov 2014-Oct-31 23:37 UT
(server date/time)  
NASA Home Page
Site Manager:   Donald K. Yeomans
Webmaster  Alan B. Chamberlin